Погода в Сосновке

Россия / Калининградская область     54°50′37″N   20°33′01″E
темп.,
°C
ветер,
м/с
пор.,
м/с
влажн.,
%
обл.,
%
осадки,
мм/ч
давл.,
гПа
погр.,
м
19 апреля, пн
пн1923:00+10всв348558 0.6 102149
02:00+7всв34833 0.6 102148
05:00+6всв34853 0.0 102048
08:00+9всв47733 0.0 1020226
11:00+15всв45520 0.0 1020699
14:00+17всв44435 0.0 10191969
17:00+15ссв46535 0.0 1018638
20:00+9ссв336443 0.0 101945
20 апреля, вт
вт2023:00+10в367390 0.0 101999
02:00+7вюв348462 0.0 101849
05:00+6вюв348582 0.0 101846
08:00+10вюв237186 0.0 1018188
11:00+14в2353100 0.0 10171069
14:00+14ссв3354100 0.1 10151227
17:00+12с446189 0.4 1014472
20:00+8с3478100 0.4 101462
21 апреля, ср
ср2123:00+6сз227481 0.0 101313
02:00+6зсз2273100 0.0 101221
05:00+5зсз33775 0.0 101130
08:00+9з35715 0.0 1010282
11:00+13з45565 0.0 1009990
14:00+14з56503 0.0 10081235
17:00+12зсз465635 0.0 1008737
20:00+7з387676 0.0 1008227
22 апреля, чт
чт2223:00+6з498889 0.0 1008524
02:00+3зюз4897100 1.9 1008466
05:00+3юз511895 0.7 1007498
08:00+4юз7107923 0.7 1007912
11:00+4юз7975100 0.1 10091052
14:00+6юз71068100 0.1 10091237
17:00+7юз7107350 0.4 10081313
20:00+4зюз499077 0.9 1009397
23 апреля, пт
пт2323:00+3юз51095100 0.2 1009610
02:00+3юз589580 0.3 1009545
05:00+4зюз6982100 0.0 1008842
08:00+5зсз6982100 0.4 1009948
11:00+6сз9107876 0.9 10111143
14:00+5ссз91189100 1.9 10141005
17:00+5сз811745 0.9 10171166
20:00+2зсз511765 0.9 1019454